| time (UTC) | temp F | wind direction | speed knots | gust knots | rain 1hr in | rain 24hr in | rain mn in | humidity % | barometer mb |
| 20260902100026 | 77 | 105 | 0.9 | 2.6 | 0.00 | 0.00 | 0.00 | 97 | 1017.4 |
| 20260902094541 | 77 | 136 | 0.0 | 0.9 | 0.00 | 0.00 | 0.00 | 97 | 1017.4 |
| 20260902093115 | 77 | 136 | 0.0 | 0.9 | 0.00 | 0.00 | 0.00 | 97 | 1017.2 |
| 20260902091516 | 78 | 136 | 0.0 | 0.0 | 0.00 | 0.00 | 0.00 | 97 | 1017.3 |
| 20260902090029 | 78 | 136 | 0.0 | 0.0 | 0.00 | 0.00 | 0.00 | 97 | 1017.1 |
| 20260902084540 | 78 | 136 | 0.0 | 0.0 | 0.00 | 0.00 | 0.00 | 97 | 1017.0 |
| 20260902083106 | 78 | 136 | 0.0 | 0.9 | 0.00 | 0.00 | 0.00 | 97 | 1016.9 |
| 20260902081620 | 78 | 136 | 0.0 | 0.0 | 0.00 | 0.00 | 0.00 | 97 | 1016.9 |
| 20260902080020 | 78 | 136 | 0.0 | 0.0 | 0.00 | 0.00 | 0.00 | 97 | 1017.2 |
| 20260902074533 | 78 | 136 | 0.0 | 0.0 | 0.00 | 0.00 | 0.00 | 97 | 1017.2 |
| 20260902073043 | 78 | 136 | 0.0 | 0.0 | 0.00 | 0.00 | 0.00 | 96 | 1017.4 |
| 20260902071626 | 79 | 136 | 0.0 | 0.9 | 0.00 | 0.00 | 0.00 | 97 | 1017.2 |
| 20260902070007 | 79 | 137 | 0.0 | 0.9 | 0.00 | 0.00 | 0.00 | 97 | 1017.4 |
| 20260902064525 | 79 | 137 | 0.0 | 2.6 | 0.00 | 0.00 | 0.00 | 96 | 1017.3 |
| 20260902063108 | 79 | 137 | 0.0 | 0.9 | 0.00 | 0.00 | 0.00 | 96 | 1017.5 |
| 20260902061501 | 79 | 137 | 0.0 | 0.9 | 0.00 | 0.00 | 0.00 | 95 | 1017.7 |
| 20260902060018 | 79 | 137 | 0.0 | 0.0 | 0.00 | 0.00 | 0.00 | 95 | 1017.7 |
| 20260902054542 | 79 | 137 | 0.0 | 0.0 | 0.00 | 0.00 | 0.00 | 95 | 1017.7 |
| 20260902053104 | 79 | 137 | 0.0 | 0.9 | 0.00 | 0.00 | 0.00 | 95 | 1017.8 |
| 20260902051518 | 79 | 137 | 0.9 | 2.6 | 0.00 | 0.00 | 0.00 | 95 | 1017.5 |
| 20260902050034 | 80 | 141 | 0.0 | 2.6 | 0.00 | 0.00 | 0.00 | 95 | 1017.7 |
| 20260902044550 | 80 | 117 | 0.0 | 2.6 | 0.00 | 0.00 | 0.00 | 94 | 1017.5 |
| 20260902043008 | 80 | 125 | 0.0 | 3.5 | 0.00 | 0.00 | 0.00 | 94 | 1017.5 |
| 20260902041526 | 80 | 117 | 1.7 | 3.5 | 0.00 | 0.00 | 0.00 | 94 | 1017.8 |
| 20260902040042 | 80 | 96 | 1.7 | 3.5 | 0.00 | 0.00 | 0.00 | 93 | 1017.9 |
| 20260902034503 | 80 | 94 | 2.6 | 5.2 | 0.00 | 0.00 | 0.00 | 93 | 1018.0 |
| 20260902033007 | 80 | 99 | 1.7 | 5.2 | 0.00 | 0.00 | 0.00 | 92 | 1018.0 |
| 20260902031537 | 80 | 113 | 0.9 | 2.6 | 0.00 | 0.00 | 0.00 | 92 | 1018.0 |
| 20260902030048 | 80 | 132 | 1.7 | 6.1 | 0.00 | 0.00 | 0.00 | 92 | 1018.1 |
| 20260902024607 | 80 | 127 | 2.6 | 4.3 | 0.00 | 0.00 | 0.00 | 92 | 1018.0 |
| 20260902023012 | 80 | 125 | 2.6 | 5.2 | 0.00 | 0.00 | 0.00 | 92 | 1017.9 |
| 20260902021541 | 80 | 117 | 1.7 | 3.5 | 0.00 | 0.00 | 0.00 | 92 | 1017.8 |
| 20260902020055 | 80 | 110 | 0.0 | 3.5 | 0.00 | 0.00 | 0.00 | 92 | 1017.6 |
| 20260902014604 | 81 | 107 | 1.7 | 3.5 | 0.00 | 0.00 | 0.00 | 92 | 1017.5 |
| 20260902013014 | 81 | 155 | 0.0 | 4.3 | 0.00 | 0.00 | 0.00 | 92 | 1017.1 |
| 20260902011536 | 81 | 155 | 0.9 | 2.6 | 0.00 | 0.00 | 0.00 | 92 | 1017.1 |
| 20260902010045 | 81 | 92 | 0.9 | 2.6 | 0.00 | 0.00 | 0.00 | 91 | 1017.1 |
| 20260902004602 | 81 | 80 | 0.9 | 3.5 | 0.00 | 0.00 | 0.00 | 91 | 1016.9 |
| 20260902003019 | 82 | 92 | 1.7 | 5.2 | 0.00 | 0.00 | 0.00 | 90 | 1016.8 |
| 20260902001530 | 82 | 107 | 1.7 | 7.0 | 0.00 | 0.00 | 0.00 | 89 | 1016.7 |
| 20260902000045 | 82 | 97 | 1.7 | 7.8 | 0.00 | 0.00 | 0.00 | 88 | 1016.8 |
| 20260901234606 | 83 | 121 | 6.1 | 8.7 | 0.00 | 0.00 | 0.00 | 87 | 1016.7 |
| 20260901233014 | 83 | 128 | 4.3 | 8.7 | 0.00 | 0.00 | 0.00 | 86 | 1016.8 |
| 20260901231534 | 83 | 109 | 4.3 | 7.0 | 0.00 | 0.00 | 0.00 | 87 | 1016.8 |
| 20260901230055 | 83 | 138 | 3.5 | 6.1 | 0.00 | 0.00 | 0.00 | 87 | 1017.0 |
| 20260901224506 | 83 | 109 | 3.5 | 6.1 | 0.00 | 0.00 | 0.00 | 87 | 1017.2 |
| 20260901223016 | 83 | 117 | 3.5 | 7.0 | 0.00 | 0.00 | 0.00 | 87 | 1017.0 |
| 20260901221558 | 83 | 102 | 4.3 | 7.8 | 0.00 | 0.00 | 0.00 | 86 | 1017.0 |
| 20260901220050 | 82 | 88 | 3.5 | 6.1 | 0.00 | 0.00 | 0.00 | 87 | 1016.9 |
| 20260901214508 | 82 | 88 | 2.6 | 7.8 | 0.00 | 0.00 | 0.00 | 87 | 1017.2 |
| 20260901213029 | 82 | 94 | 3.5 | 6.1 | 0.00 | 0.00 | 0.00 | 88 | 1017.3 |
| 20260901211549 | 81 | 111 | 4.3 | 7.0 | 0.00 | 0.00 | 0.00 | 88 | 1017.1 |
| 20260901210012 | 80 | 93 | 0.0 | 2.6 | 0.00 | 0.00 | 0.00 | 91 | 1017.2 |
| 20260901204533 | 80 | 61 | 1.7 | 2.6 | 0.00 | 0.00 | 0.00 | 91 | 1017.3 |
| 20260901203148 | 80 | 48 | 0.0 | 2.6 | 0.00 | 0.00 | 0.00 | 92 | 1017.6 |
| 20260901201557 | 79 | 76 | 1.7 | 5.2 | 0.00 | 0.00 | 0.00 | 92 | 1017.8 |
| 20260901200005 | 79 | 53 | 2.6 | 4.3 | 0.00 | 0.00 | 0.00 | 93 | 1017.8 |
| 20260901194521 | 79 | 44 | 4.3 | 8.7 | 0.00 | 0.00 | 0.00 | 92 | 1018.4 |
| 20260901193039 | 79 | 33 | 2.6 | 4.3 | 0.00 | 0.00 | 0.00 | 92 | 1018.5 |
| 20260901191549 | 79 | 36 | 2.6 | 5.2 | 0.00 | 0.00 | 0.00 | 92 | 1018.7 |
| 20260901190002 | 79 | 19 | 3.5 | 11.3 | 0.00 | 0.00 | 0.00 | 91 | 1018.5 |
| 20260901184513 | 80 | 21 | 2.6 | 4.3 | 0.00 | 0.00 | 0.00 | 90 | 1018.7 |
| 20260901183034 | 80 | 331 | 1.7 | 5.2 | 0.00 | 0.00 | 0.00 | 90 | 1018.6 |
| 20260901181553 | 80 | 212 | 0.0 | 4.3 | 0.00 | 0.00 | 0.00 | 90 | 1018.7 |
| 20260901180006 | 80 | 239 | 0.0 | 4.3 | 0.00 | 0.00 | 0.00 | 90 | 1018.8 |
| 20260901174521 | 81 | 183 | 3.5 | 8.7 | 0.00 | 0.00 | 0.00 | 87 | 1018.8 |
| 20260901173040 | 88 | 225 | 7.8 | 11.3 | 0.00 | 0.00 | 0.00 | 76 | 1018.7 |
| 20260901171505 | 88 | 97 | 6.1 | 11.3 | 0.00 | 0.00 | 0.00 | 79 | 1018.1 |
| 20260901170033 | 86 | 159 | 2.6 | 5.2 | 0.00 | 0.00 | 0.00 | 87 | 1018.3 |
| 20260901164553 | 85 | 128 | 0.9 | 6.1 | 0.00 | 0.00 | 0.00 | 86 | 1018.7 |
| 20260901163010 | 86 | 156 | 3.5 | 10.4 | 0.00 | 0.00 | 0.00 | 82 | 1018.6 |
| 20260901161536 | 87 | 120 | 3.5 | 7.8 | 0.00 | 0.00 | 0.00 | 79 | 1018.5 |
| 20260901160046 | 88 | 98 | 2.6 | 10.4 | 0.00 | 0.00 | 0.00 | 78 | 1018.5 |
| 20260901154541 | 87 | 103 | 6.1 | 9.6 | 0.00 | 0.00 | 0.00 | 79 | 1018.4 |
| 20260901153057 | 88 | 118 | 6.1 | 9.6 | 0.00 | 0.00 | 0.00 | 79 | 1018.7 |
| 20260901151508 | 87 | 110 | 7.0 | 11.3 | 0.00 | 0.00 | 0.00 | 81 | 1018.6 |
| 20260901150029 | 87 | 99 | 7.0 | 12.2 | 0.00 | 0.00 | 0.00 | 83 | 1018.4 |
| 20260901144552 | 86 | 99 | 3.5 | 8.7 | 0.00 | 0.00 | 0.00 | 85 | 1018.4 |
| 20260901143015 | 85 | 98 | 7.0 | 11.3 | 0.00 | 0.00 | 0.00 | 84 | 1018.4 |
| 20260901141546 | 86 | 99 | 5.2 | 11.3 | 0.00 | 0.00 | 0.00 | 84 | 1018.3 |
| 20260901134631 | 84 | 115 | 7.0 | 10.4 | 0.00 | 0.00 | 0.00 | 87 | 1018.4 |
| 20260901133016 | 84 | 93 | 5.2 | 10.4 | 0.00 | 0.00 | 0.00 | 88 | 1018.1 |
| 20260901131521 | 83 | 98 | 4.3 | 7.0 | 0.00 | 0.00 | 0.00 | 89 | 1018.2 |
| 20260901130045 | 82 | 98 | 3.5 | 7.8 | 0.00 | 0.00 | 0.00 | 90 | 1018.2 |
| 20260901124608 | 82 | 111 | 2.6 | 7.0 | 0.00 | 0.00 | 0.00 | 91 | 1018.0 |
| 20260901123022 | 81 | 71 | 3.5 | 7.8 | 0.00 | 0.00 | 0.00 | 91 | 1017.8 |
| 20260901121538 | 80 | 101 | 2.6 | 5.2 | 0.00 | 0.00 | 0.00 | 92 | 1017.7 |
| 20260901114510 | 80 | 96 | 4.3 | 6.1 | 0.00 | 0.00 | 0.00 | 93 | 1017.5 |
| 20260901113041 | 80 | 81 | 2.6 | 6.1 | 0.00 | 0.00 | 0.00 | 94 | 1017.3 |
| 20260901111540 | 80 | 73 | 1.7 | 6.1 | 0.00 | 0.00 | 0.00 | 94 | 1017.0 |
| 20260901110002 | 80 | 96 | 2.6 | 7.0 | 0.00 | 0.00 | 0.00 | 94 | 1016.8 |
| 20260901104529 | 80 | 87 | 2.6 | 7.8 | 0.00 | 0.00 | 0.00 | 94 | 1016.6 |
| 20260901103039 | 80 | 98 | 2.6 | 7.0 | 0.00 | 0.00 | 0.00 | 94 | 1016.4 |
| 20260901101615 | 80 | 84 | 1.7 | 4.3 | 0.00 | 0.00 | 0.00 | 93 | 1016.5 |